Time,TemperatureF,DewpointF,PressureIn,WindDirection,WindDirectionDegrees,WindSpeedMPH,WindSpeedGustMPH,Humidity,HourlyPrecipIn,Conditions,Clouds,dailyrainin,SolarRadiationWatts/m^2,SoftwareType,DateUTC
2013-05-24 00:06:00,77.8,71.9,29.92,East,90,0.0,1.0,82,0.00,,,-99.99,0,WeatherLink 5.4,2013-05-24 04:06:00,
2013-05-24 00:08:00,77.8,71.9,29.92,East,90,0.0,1.0,82,0.00,,,-99.99,0,WeatherLink 5.4,2013-05-24 04:08:00,
2013-05-24 00:09:00,77.8,71.9,29.92,East,90,0.0,1.0,82,0.00,,,-99.99,0,WeatherLink 5.4,2013-05-24 04:09:00,
2013-05-24 00:14:00,77.8,71.9,29.92,East,90,0.0,1.0,82,0.00,,,-99.99,0,WeatherLink 5.4,2013-05-24 04:14:00,
2013-05-24 00:20:00,77.7,72.1,29.92,North,-999,0.0,0.0,83,0.00,,,-99.99,0,WeatherLink 5.4,2013-05-24 04:20:00,
2013-05-24 00:26:00,77.7,72.1,29.92,North,-999,0.0,0.0,83,0.00,,,-99.99,0,WeatherLink 5.4,2013-05-24 04:26:00,
2013-05-24 00:31:00,77.6,72.0,29.91,North,-999,0.0,0.0,83,0.00,,,-99.99,0,WeatherLink 5.4,2013-05-24 04:31:00,
2013-05-24 00:37:00,77.5,71.9,29.91,East,90,0.0,1.0,83,0.00,,,-99.99,0,WeatherLink 5.4,2013-05-24 04:37:00,
2013-05-24 00:43:00,77.5,71.9,29.91,East,90,0.0,1.0,83,0.00,,,-99.99,0,WeatherLink 5.4,2013-05-24 04:43:00,
2013-05-24 00:49:00,77.3,72.1,29.91,North,-999,0.0,0.0,84,0.00,,,-99.99,0,WeatherLink 5.4,2013-05-24 04:49:00,
2013-05-24 00:54:00,77.3,72.1,29.91,North,-999,0.0,0.0,84,0.00,,,-99.99,0,WeatherLink 5.4,2013-05-24 04:54:00,
2013-05-24 00:59:00,77.2,72.3,29.90,North,-999,0.0,0.0,85,0.00,,,-99.99,0,WeatherLink 5.4,2013-05-24 04:59:00,
2013-05-24 01:04:00,77.2,72.3,29.90,North,-999,0.0,0.0,85,0.00,,,-99.99,0,WeatherLink 5.4,2013-05-24 05:04:00,
2013-05-24 01:10:00,77.0,72.1,29.90,ESE,112,0.0,1.0,85,0.00,,,-99.99,0,WeatherLink 5.4,2013-05-24 05:10:00,
2013-05-24 01:16:00,77.0,72.1,29.90,ESE,112,0.0,1.0,85,0.00,,,-99.99,0,WeatherLink 5.4,2013-05-24 05:16:00,
2013-05-24 01:21:00,76.9,72.0,29.89,North,-999,0.0,0.0,85,0.00,,,-99.99,0,WeatherLink 5.4,2013-05-24 05:21:00,
2013-05-24 01:27:00,76.9,72.0,29.89,ESE,112,1.0,6.0,85,0.01,,,-99.99,0,WeatherLink 5.4,2013-05-24 05:27:00,
2013-05-24 01:33:00,76.9,72.0,29.89,ESE,112,1.0,6.0,85,0.01,,,-99.99,0,WeatherLink 5.4,2013-05-24 05:33:00,
2013-05-24 01:38:00,76.7,72.2,29.89,ESE,112,1.0,8.0,86,0.01,,,-99.99,0,WeatherLink 5.4,2013-05-24 05:38:00,
2013-05-24 01:43:00,76.7,72.2,29.89,ESE,112,1.0,8.0,86,0.01,,,-99.99,0,WeatherLink 5.4,2013-05-24 05:43:00,
2013-05-24 01:49:00,76.5,72.0,29.88,ENE,67,0.0,3.0,86,0.01,,,-99.99,0,WeatherLink 5.4,2013-05-24 05:49:00,
2013-05-24 01:54:00,76.5,72.0,29.88,ENE,67,0.0,3.0,86,0.01,,,-99.99,0,WeatherLink 5.4,2013-05-24 05:54:00,
2013-05-24 02:00:00,76.3,72.1,29.88,East,90,1.0,6.0,87,0.02,,,-99.99,0,WeatherLink 5.4,2013-05-24 06:00:00,
2013-05-24 02:06:00,76.3,72.1,29.88,East,90,1.0,6.0,87,0.02,,,-99.99,0,WeatherLink 5.4,2013-05-24 06:06:00,
2013-05-24 02:12:00,76.1,72.3,29.88,East,90,0.0,6.0,88,0.03,,,-99.99,0,WeatherLink 5.4,2013-05-24 06:12:00,
2013-05-24 02:18:00,76.0,72.2,29.87,ENE,67,0.0,6.0,88,0.04,,,-99.99,0,WeatherLink 5.4,2013-05-24 06:18:00,
2013-05-24 02:24:00,76.0,72.2,29.87,ENE,67,0.0,6.0,88,0.04,,,-99.99,0,WeatherLink 5.4,2013-05-24 06:24:00,
2013-05-24 02:30:00,75.7,71.9,29.86,East,90,2.0,8.0,88,0.03,,,-99.99,0,WeatherLink 5.4,2013-05-24 06:30:00,
2013-05-24 02:36:00,75.7,71.9,29.86,East,90,2.0,8.0,88,0.03,,,-99.99,0,WeatherLink 5.4,2013-05-24 06:36:00,
2013-05-24 02:42:00,75.5,72.0,29.86,East,90,0.0,3.0,89,0.03,,,-99.99,0,WeatherLink 5.4,2013-05-24 06:42:00,
2013-05-24 02:48:00,75.4,71.9,29.86,East,90,0.0,3.0,89,0.03,,,-99.99,0,WeatherLink 5.4,2013-05-24 06:48:00,
2013-05-24 02:54:00,75.4,71.9,29.86,East,90,0.0,3.0,89,0.03,,,-99.99,0,WeatherLink 5.4,2013-05-24 06:54:00,
2013-05-24 03:00:00,75.4,71.9,29.86,North,-999,0.0,0.0,89,0.02,,,-99.99,0,WeatherLink 5.4,2013-05-24 07:00:00,
2013-05-24 03:05:00,75.4,71.9,29.86,North,-999,0.0,0.0,89,0.02,,,-99.99,0,WeatherLink 5.4,2013-05-24 07:05:00,
2013-05-24 03:10:00,75.3,72.2,29.86,North,-999,0.0,0.0,90,0.01,,,-99.99,0,WeatherLink 5.4,2013-05-24 07:10:00,
2013-05-24 03:16:00,75.3,72.2,29.86,North,-999,0.0,0.0,90,0.01,,,-99.99,0,WeatherLink 5.4,2013-05-24 07:16:00,
2013-05-24 03:21:00,75.3,72.2,29.86,North,-999,0.0,0.0,90,0.00,,,-99.99,0,WeatherLink 5.4,2013-05-24 07:21:00,
2013-05-24 03:26:00,75.3,72.2,29.86,North,-999,0.0,0.0,90,0.00,,,-99.99,0,WeatherLink 5.4,2013-05-24 07:26:00,
2013-05-24 03:31:00,75.2,72.1,29.86,North,-999,0.0,0.0,90,0.00,,,-99.99,0,WeatherLink 5.4,2013-05-24 07:31:00,
2013-05-24 03:37:00,75.1,72.0,29.86,North,-999,0.0,0.0,90,0.00,,,-99.99,0,WeatherLink 5.4,2013-05-24 07:37:00,
2013-05-24 03:42:00,75.1,72.0,29.86,North,-999,0.0,0.0,90,0.00,,,-99.99,0,WeatherLink 5.4,2013-05-24 07:42:00,
2013-05-24 03:47:00,74.9,71.8,29.85,North,-999,0.0,0.0,90,0.00,,,-99.99,0,WeatherLink 5.4,2013-05-24 07:47:00,
2013-05-24 03:52:00,74.9,71.8,29.85,North,-999,0.0,0.0,90,0.00,,,-99.99,0,WeatherLink 5.4,2013-05-24 07:52:00,
2013-05-24 03:58:00,74.9,72.1,29.85,North,-999,0.0,0.0,91,0.00,,,-99.99,0,WeatherLink 5.4,2013-05-24 07:58:00,
2013-05-24 04:04:00,74.9,72.1,29.85,North,-999,0.0,0.0,91,0.00,,,-99.99,0,WeatherLink 5.4,2013-05-24 08:04:00,
2013-05-24 04:10:00,74.8,72.0,29.85,North,-999,0.0,0.0,91,0.00,,,-99.99,0,WeatherLink 5.4,2013-05-24 08:10:00,
2013-05-24 04:15:00,74.8,72.0,29.85,North,-999,0.0,0.0,91,0.00,,,-99.99,0,WeatherLink 5.4,2013-05-24 08:15:00,
2013-05-24 04:20:00,74.7,71.9,29.85,North,-999,0.0,0.0,91,0.00,,,-99.99,0,WeatherLink 5.4,2013-05-24 08:20:00,
2013-05-24 04:26:00,74.7,71.9,29.85,North,-999,0.0,0.0,91,0.00,,,-99.99,0,WeatherLink 5.4,2013-05-24 08:26:00,
2013-05-24 04:31:00,74.7,71.9,29.85,North,-999,0.0,0.0,91,0.00,,,-99.99,0,WeatherLink 5.4,2013-05-24 08:31:00,
2013-05-24 04:36:00,74.7,71.9,29.85,North,-999,0.0,0.0,91,0.00,,,-99.99,0,WeatherLink 5.4,2013-05-24 08:36:00,
2013-05-24 04:41:00,74.7,71.9,29.85,North,-999,0.0,0.0,91,0.00,,,-99.99,0,WeatherLink 5.4,2013-05-24 08:41:00,
2013-05-24 04:46:00,74.7,72.2,29.85,North,-999,0.0,0.0,92,0.00,,,-99.99,0,WeatherLink 5.4,2013-05-24 08:46:00,
2013-05-24 04:51:00,74.7,72.2,29.85,North,-999,0.0,0.0,92,0.00,,,-99.99,0,WeatherLink 5.4,2013-05-24 08:51:00,
2013-05-24 04:57:00,74.7,72.2,29.86,North,-999,0.0,0.0,92,0.00,,,-99.99,0,WeatherLink 5.4,2013-05-24 08:57:00,
2013-05-24 05:03:00,74.7,72.2,29.86,North,-999,0.0,0.0,92,0.00,,,-99.99,0,WeatherLink 5.4,2013-05-24 09:03:00,
2013-05-24 05:09:00,74.7,72.2,29.86,North,-999,0.0,0.0,92,0.00,,,-99.99,0,WeatherLink 5.4,2013-05-24 09:09:00,
2013-05-24 05:14:00,74.7,72.2,29.86,North,-999,0.0,0.0,92,0.00,,,-99.99,0,WeatherLink 5.4,2013-05-24 09:14:00,
2013-05-24 05:20:00,74.6,72.1,29.86,North,-999,0.0,0.0,92,0.00,,,-99.99,0,WeatherLink 5.4,2013-05-24 09:20:00,
2013-05-24 05:25:00,74.6,72.1,29.86,North,-999,0.0,0.0,92,0.00,,,-99.99,0,WeatherLink 5.4,2013-05-24 09:25:00,
2013-05-24 05:31:00,74.6,72.1,29.86,North,-999,0.0,0.0,92,0.00,,,-99.99,0,WeatherLink 5.4,2013-05-24 09:31:00,
2013-05-24 05:37:00,74.6,72.1,29.86,North,-999,0.0,0.0,92,0.00,,,-99.99,0,WeatherLink 5.4,2013-05-24 09:37:00,
2013-05-24 05:43:00,74.6,72.1,29.86,North,-999,0.0,0.0,92,0.00,,,-99.99,0,WeatherLink 5.4,2013-05-24 09:43:00,
2013-05-24 05:49:00,74.4,71.9,29.87,North,-999,0.0,0.0,92,0.00,,,-99.99,0,WeatherLink 5.4,2013-05-24 09:49:00,
2013-05-24 05:55:00,74.4,71.9,29.87,North,-999,0.0,0.0,92,0.00,,,-99.99,0,WeatherLink 5.4,2013-05-24 09:55:00,
2013-05-24 06:01:00,74.4,71.9,29.88,East,90,0.0,5.0,92,0.00,,,-99.99,4,WeatherLink 5.4,2013-05-24 10:01:00,
2013-05-24 06:07:00,74.4,71.9,29.88,North,-999,0.0,0.0,92,0.00,,,-99.99,13,WeatherLink 5.4,2013-05-24 10:07:00,
2013-05-24 06:13:00,74.4,71.9,29.88,North,-999,0.0,0.0,92,0.00,,,-99.99,13,WeatherLink 5.4,2013-05-24 10:13:00,
2013-05-24 06:19:00,74.5,72.0,29.88,North,-999,0.0,0.0,92,0.00,,,-99.99,21,WeatherLink 5.4,2013-05-24 10:19:00,
2013-05-24 06:25:00,74.5,72.0,29.88,North,-999,0.0,0.0,92,0.00,,,-99.99,21,WeatherLink 5.4,2013-05-24 10:25:00,
2013-05-24 06:31:00,74.6,72.1,29.89,North,-999,0.0,0.0,92,0.00,,,-99.99,23,WeatherLink 5.4,2013-05-24 10:31:00,
2013-05-24 06:37:00,74.6,72.1,29.89,East,90,0.0,5.0,92,0.00,,,-99.99,40,WeatherLink 5.4,2013-05-24 10:37:00,
2013-05-24 06:43:00,74.6,72.1,29.89,East,90,0.0,5.0,92,0.00,,,-99.99,40,WeatherLink 5.4,2013-05-24 10:43:00,
2013-05-24 06:49:00,74.7,72.2,29.89,East,90,0.0,1.0,92,0.00,,,-99.99,44,WeatherLink 5.4,2013-05-24 10:49:00,
2013-05-24 06:55:00,74.7,72.2,29.89,East,90,0.0,1.0,92,0.00,,,-99.99,44,WeatherLink 5.4,2013-05-24 10:55:00,
2013-05-24 07:01:00,74.8,72.3,29.89,North,-999,0.0,0.0,92,0.00,,,-99.99,69,WeatherLink 5.4,2013-05-24 11:01:00,
2013-05-24 07:06:00,74.8,72.3,29.89,North,-999,0.0,0.0,92,0.00,,,-99.99,69,WeatherLink 5.4,2013-05-24 11:06:00,
2013-05-24 07:12:00,75.0,72.5,29.89,North,-999,0.0,0.0,92,0.00,,,-99.99,47,WeatherLink 5.4,2013-05-24 11:12:00,
2013-05-24 07:17:00,75.1,72.6,29.89,East,90,0.0,7.0,92,0.00,,,-99.99,49,WeatherLink 5.4,2013-05-24 11:17:00,
2013-05-24 07:22:00,75.1,72.6,29.89,East,90,0.0,7.0,92,0.00,,,-99.99,49,WeatherLink 5.4,2013-05-24 11:22:00,
2013-05-24 07:27:00,75.3,72.8,29.90,SE,135,1.0,8.0,92,0.02,,,-99.99,76,WeatherLink 5.4,2013-05-24 11:27:00,
2013-05-24 07:32:00,75.3,72.8,29.90,SE,135,1.0,8.0,92,0.02,,,-99.99,76,WeatherLink 5.4,2013-05-24 11:32:00,
2013-05-24 07:38:00,75.3,72.8,29.90,ESE,112,1.0,5.0,92,0.02,,,-99.99,139,WeatherLink 5.4,2013-05-24 11:38:00,
2013-05-24 07:43:00,75.3,72.8,29.90,ESE,112,1.0,5.0,92,0.02,,,-99.99,139,WeatherLink 5.4,2013-05-24 11:43:00,
2013-05-24 07:48:00,75.4,72.9,29.90,ESE,112,1.0,7.0,92,0.02,,,-99.99,309,WeatherLink 5.4,2013-05-24 11:48:00,
2013-05-24 07:53:00,75.4,72.9,29.90,ESE,112,1.0,7.0,92,0.02,,,-99.99,309,WeatherLink 5.4,2013-05-24 11:53:00,
2013-05-24 07:59:00,75.8,73.0,29.90,SE,135,0.0,1.0,91,0.02,,,-99.99,277,WeatherLink 5.4,2013-05-24 11:59:00,
2013-05-24 08:05:00,75.8,73.0,29.90,SE,135,0.0,1.0,91,0.02,,,-99.99,277,WeatherLink 5.4,2013-05-24 12:05:00,
2013-05-24 08:10:00,75.8,72.3,29.90,SE,135,1.0,7.0,89,0.02,,,-99.99,166,WeatherLink 5.4,2013-05-24 12:10:00,
2013-05-24 08:16:00,75.8,72.3,29.90,SE,135,1.0,7.0,89,0.02,,,-99.99,166,WeatherLink 5.4,2013-05-24 12:16:00,
2013-05-24 08:22:00,75.7,71.2,29.90,ESE,112,4.0,8.0,86,0.02,,,-99.99,227,WeatherLink 5.4,2013-05-24 12:22:00,
2013-05-24 08:27:00,76.1,70.9,29.91,SE,135,2.0,11.0,84,0.00,,,-99.99,239,WeatherLink 5.4,2013-05-24 12:27:00,
2013-05-24 08:32:00,76.1,70.9,29.91,SE,135,2.0,11.0,84,0.00,,,-99.99,239,WeatherLink 5.4,2013-05-24 12:32:00,
2013-05-24 08:38:00,76.5,70.6,29.91,ESE,112,4.0,9.0,82,0.00,,,-99.99,250,WeatherLink 5.4,2013-05-24 12:38:00,
2013-05-24 08:44:00,76.5,70.6,29.91,ESE,112,4.0,9.0,82,0.00,,,-99.99,250,WeatherLink 5.4,2013-05-24 12:44:00,
2013-05-24 08:50:00,76.8,70.5,29.91,ESE,112,1.0,7.0,81,0.00,,,-99.99,233,WeatherLink 5.4,2013-05-24 12:50:00,
2013-05-24 08:56:00,76.8,70.5,29.91,ESE,112,1.0,7.0,81,0.00,,,-99.99,233,WeatherLink 5.4,2013-05-24 12:56:00,
2013-05-24 09:02:00,77.1,70.5,29.91,ESE,112,1.0,8.0,80,0.00,,,-99.99,297,WeatherLink 5.4,2013-05-24 13:02:00,
2013-05-24 09:08:00,77.6,70.6,29.91,ESE,112,1.0,8.0,79,0.00,,,-99.99,694,WeatherLink 5.4,2013-05-24 13:08:00,
2013-05-24 09:14:00,77.6,70.6,29.91,ESE,112,1.0,8.0,79,0.00,,,-99.99,694,WeatherLink 5.4,2013-05-24 13:14:00,
2013-05-24 09:20:00,78.7,71.3,29.91,SE,135,1.0,8.0,78,0.00,,,-99.99,730,WeatherLink 5.4,2013-05-24 13:20:00,
2013-05-24 09:26:00,78.7,71.3,29.91,SE,135,1.0,8.0,78,0.00,,,-99.99,730,WeatherLink 5.4,2013-05-24 13:26:00,
2013-05-24 09:31:00,79.5,71.3,29.91,East,90,2.0,8.0,76,0.00,,,-99.99,276,WeatherLink 5.4,2013-05-24 13:31:00,
2013-05-24 09:36:00,79.5,71.3,29.91,East,90,2.0,8.0,76,0.00,,,-99.99,276,WeatherLink 5.4,2013-05-24 13:36:00,
2013-05-24 09:42:00,79.8,71.6,29.91,ESE,112,3.0,8.0,76,0.00,,,-99.99,291,WeatherLink 5.4,2013-05-24 13:42:00,
2013-05-24 09:48:00,80.0,71.0,29.92,ESE,112,2.0,9.0,74,0.00,,,-99.99,674,WeatherLink 5.4,2013-05-24 13:48:00,
2013-05-24 09:54:00,80.0,71.0,29.92,ESE,112,2.0,9.0,74,0.00,,,-99.99,674,WeatherLink 5.4,2013-05-24 13:54:00,
2013-05-24 10:00:00,80.7,70.8,29.92,ENE,67,1.0,8.0,72,0.00,,,-99.99,315,WeatherLink 5.4,2013-05-24 14:00:00,
2013-05-24 10:06:00,80.7,70.8,29.92,ENE,67,1.0,8.0,72,0.00,,,-99.99,315,WeatherLink 5.4,2013-05-24 14:06:00,
2013-05-24 10:11:00,80.6,71.9,29.92,East,90,3.0,8.0,75,0.00,,,-99.99,241,WeatherLink 5.4,2013-05-24 14:11:00,
2013-05-24 10:16:00,80.6,71.9,29.92,East,90,3.0,8.0,75,0.00,,,-99.99,241,WeatherLink 5.4,2013-05-24 14:16:00,
2013-05-24 10:21:00,80.0,71.4,29.92,ESE,112,1.0,6.0,75,0.00,,,-99.99,533,WeatherLink 5.4,2013-05-24 14:21:00,
2013-05-24 10:27:00,80.4,70.5,29.91,ESE,112,0.0,6.0,72,0.00,,,-99.99,744,WeatherLink 5.4,2013-05-24 14:27:00,
2013-05-24 10:33:00,80.4,70.5,29.91,ESE,112,0.0,6.0,72,0.00,,,-99.99,744,WeatherLink 5.4,2013-05-24 14:33:00,
2013-05-24 10:39:00,81.3,71.0,29.91,ESE,112,2.0,8.0,71,0.00,,,-99.99,209,WeatherLink 5.4,2013-05-24 14:39:00,
2013-05-24 10:45:00,81.3,71.0,29.91,ESE,112,2.0,8.0,71,0.00,,,-99.99,209,WeatherLink 5.4,2013-05-24 14:45:00,
2013-05-24 10:50:00,81.6,71.3,29.91,ESE,112,1.0,7.0,71,0.00,,,-99.99,862,WeatherLink 5.4,2013-05-24 14:50:00,
2013-05-24 10:55:00,81.6,71.3,29.91,ESE,112,1.0,7.0,71,0.00,,,-99.99,862,WeatherLink 5.4,2013-05-24 14:55:00,
2013-05-24 11:00:00,82.6,71.0,29.91,East,90,3.0,10.0,68,0.00,,,-99.99,779,WeatherLink 5.4,2013-05-24 15:00:00,
2013-05-24 11:06:00,82.6,71.0,29.91,East,90,3.0,10.0,68,0.00,,,-99.99,779,WeatherLink 5.4,2013-05-24 15:06:00,
2013-05-24 11:11:00,82.7,71.9,29.91,East,90,1.0,8.0,70,0.00,,,-99.99,348,WeatherLink 5.4,2013-05-24 15:11:00,
2013-05-24 11:16:00,82.6,72.2,29.91,ENE,67,2.0,7.0,71,0.00,,,-99.99,270,WeatherLink 5.4,2013-05-24 15:16:00,
2013-05-24 11:21:00,82.6,72.2,29.91,ENE,67,2.0,7.0,71,0.00,,,-99.99,270,WeatherLink 5.4,2013-05-24 15:21:00,
2013-05-24 11:26:00,81.8,73.5,29.91,ENE,67,2.0,10.0,76,0.00,,,-99.99,333,WeatherLink 5.4,2013-05-24 15:26:00,
2013-05-24 11:32:00,81.8,73.5,29.91,ENE,67,2.0,10.0,76,0.00,,,-99.99,333,WeatherLink 5.4,2013-05-24 15:32:00,
2013-05-24 11:37:00,81.3,71.8,29.91,East,90,2.0,8.0,73,0.00,,,-99.99,934,WeatherLink 5.4,2013-05-24 15:37:00,
2013-05-24 11:42:00,81.3,71.8,29.91,East,90,2.0,8.0,73,0.00,,,-99.99,934,WeatherLink 5.4,2013-05-24 15:42:00,
2013-05-24 11:47:00,82.2,71.9,29.91,East,90,1.0,7.0,71,0.00,,,-99.99,523,WeatherLink 5.4,2013-05-24 15:47:00,
2013-05-24 11:53:00,82.2,71.9,29.91,East,90,1.0,7.0,71,0.00,,,-99.99,523,WeatherLink 5.4,2013-05-24 15:53:00,
2013-05-24 11:59:00,83.1,71.4,29.90,East,90,2.0,9.0,68,0.00,,,-99.99,917,WeatherLink 5.4,2013-05-24 15:59:00,
2013-05-24 12:04:00,83.1,71.4,29.90,East,90,2.0,9.0,68,0.00,,,-99.99,917,WeatherLink 5.4,2013-05-24 16:04:00,
2013-05-24 12:10:00,84.1,70.6,29.90,ESE,112,2.0,8.0,64,0.00,,,-99.99,846,WeatherLink 5.4,2013-05-24 16:10:00,
2013-05-24 12:15:00,84.1,70.6,29.90,ESE,112,2.0,8.0,64,0.00,,,-99.99,846,WeatherLink 5.4,2013-05-24 16:15:00,
2013-05-24 12:20:00,85.2,72.1,29.90,ESE,112,2.0,11.0,65,0.00,,,-99.99,554,WeatherLink 5.4,2013-05-24 16:20:00,
2013-05-24 12:25:00,85.2,72.1,29.90,ESE,112,2.0,11.0,65,0.00,,,-99.99,554,WeatherLink 5.4,2013-05-24 16:25:00,
2013-05-24 12:30:00,85.5,71.9,29.89,East,90,1.0,7.0,64,0.00,,,-99.99,265,WeatherLink 5.4,2013-05-24 16:30:00,
2013-05-24 12:35:00,85.5,71.9,29.89,East,90,1.0,7.0,64,0.00,,,-99.99,265,WeatherLink 5.4,2013-05-24 16:35:00,
2013-05-24 12:41:00,85.3,71.7,29.89,ESE,112,1.0,7.0,64,0.00,,,-99.99,308,WeatherLink 5.4,2013-05-24 16:41:00,
2013-05-24 12:47:00,85.4,71.4,29.89,ENE,67,1.0,8.0,63,0.00,,,-99.99,458,WeatherLink 5.4,2013-05-24 16:47:00,
2013-05-24 12:53:00,85.4,71.4,29.89,ENE,67,1.0,8.0,63,0.00,,,-99.99,458,WeatherLink 5.4,2013-05-24 16:53:00,
2013-05-24 12:59:00,85.8,71.3,29.88,East,90,1.0,7.0,62,0.00,,,-99.99,742,WeatherLink 5.4,2013-05-24 16:59:00,
2013-05-24 13:04:00,85.8,71.3,29.88,East,90,1.0,7.0,62,0.00,,,-99.99,742,WeatherLink 5.4,2013-05-24 17:04:00,
2013-05-24 13:10:00,85.8,71.3,29.88,ESE,112,1.0,7.0,62,0.00,,,-99.99,262,WeatherLink 5.4,2013-05-24 17:10:00,
2013-05-24 13:15:00,85.8,71.3,29.88,ESE,112,1.0,7.0,62,0.00,,,-99.99,262,WeatherLink 5.4,2013-05-24 17:15:00,
2013-05-24 13:21:00,85.5,74.6,29.88,East,90,3.0,13.0,70,0.00,,,-99.99,337,WeatherLink 5.4,2013-05-24 17:21:00,
2013-05-24 13:26:00,85.5,74.6,29.88,East,90,3.0,13.0,70,0.00,,,-99.99,337,WeatherLink 5.4,2013-05-24 17:26:00,
2013-05-24 13:31:00,84.4,73.5,29.88,ENE,67,2.0,12.0,70,0.00,,,-99.99,323,WeatherLink 5.4,2013-05-24 17:31:00,
2013-05-24 13:37:00,83.7,74.1,29.88,East,90,2.0,13.0,73,0.00,,,-99.99,752,WeatherLink 5.4,2013-05-24 17:37:00,
2013-05-24 13:42:00,83.7,74.1,29.88,East,90,2.0,13.0,73,0.00,,,-99.99,752,WeatherLink 5.4,2013-05-24 17:42:00,
2013-05-24 13:48:00,83.8,75.0,29.88,East,90,3.0,11.0,75,0.00,,,-99.99,319,WeatherLink 5.4,2013-05-24 17:48:00,
2013-05-24 13:54:00,83.8,75.0,29.88,East,90,3.0,11.0,75,0.00,,,-99.99,319,WeatherLink 5.4,2013-05-24 17:54:00,
2013-05-24 13:59:00,83.3,74.9,29.87,East,90,2.0,11.0,76,0.00,,,-99.99,879,WeatherLink 5.4,2013-05-24 17:59:00,
2013-05-24 14:05:00,83.3,74.9,29.87,East,90,2.0,11.0,76,0.00,,,-99.99,879,WeatherLink 5.4,2013-05-24 18:05:00,
2013-05-24 14:10:00,84.0,74.8,29.87,NNE,22,0.0,3.0,74,0.00,,,-99.99,443,WeatherLink 5.4,2013-05-24 18:10:00,
2013-05-24 14:16:00,84.0,74.8,29.87,NNE,22,0.0,3.0,74,0.00,,,-99.99,443,WeatherLink 5.4,2013-05-24 18:16:00,
2013-05-24 14:21:00,84.3,74.3,29.86,ENE,67,2.0,10.0,72,0.00,,,-99.99,421,WeatherLink 5.4,2013-05-24 18:21:00,
2013-05-24 14:27:00,84.4,73.5,29.86,East,90,2.0,7.0,70,0.00,,,-99.99,184,WeatherLink 5.4,2013-05-24 18:27:00,
2013-05-24 14:33:00,84.4,73.5,29.86,East,90,2.0,7.0,70,0.00,,,-99.99,184,WeatherLink 5.4,2013-05-24 18:33:00,
2013-05-24 14:39:00,84.4,72.2,29.86,East,90,2.0,10.0,67,0.00,,,-99.99,925,WeatherLink 5.4,2013-05-24 18:39:00,
2013-05-24 14:45:00,84.4,72.2,29.86,East,90,2.0,10.0,67,0.00,,,-99.99,925,WeatherLink 5.4,2013-05-24 18:45:00,
2013-05-24 14:50:00,85.4,72.7,29.86,ESE,112,2.0,12.0,66,0.00,,,-99.99,713,WeatherLink 5.4,2013-05-24 18:50:00,
2013-05-24 14:51:00,85.4,72.7,29.86,ESE,112,2.0,12.0,66,0.00,,,-99.99,713,WeatherLink 5.4,2013-05-24 18:51:00,
2013-05-24 15:04:00,85.5,72.4,29.86,East,90,4.0,11.0,65,0.00,,,-99.99,584,WeatherLink 5.4,2013-05-24 19:04:00,
2013-05-24 15:09:00,85.4,71.8,29.86,ENE,67,2.0,9.0,64,0.00,,,-99.99,792,WeatherLink 5.4,2013-05-24 19:09:00,
2013-05-24 15:14:00,85.4,71.8,29.86,ENE,67,2.0,9.0,64,0.00,,,-99.99,792,WeatherLink 5.4,2013-05-24 19:14:00,
2013-05-24 15:20:00,85.7,72.1,29.86,East,90,2.0,10.0,64,0.00,,,-99.99,262,WeatherLink 5.4,2013-05-24 19:20:00,
2013-05-24 15:25:00,85.7,72.1,29.86,East,90,2.0,10.0,64,0.00,,,-99.99,262,WeatherLink 5.4,2013-05-24 19:25:00,
2013-05-24 15:31:00,85.7,73.9,29.85,North,-999,0.0,0.0,68,0.00,,,-99.99,328,WeatherLink 5.4,2013-05-24 19:31:00,
2013-05-24 15:37:00,85.6,73.4,29.85,ENE,67,2.0,8.0,67,0.00,,,-99.99,312,WeatherLink 5.4,2013-05-24 19:37:00,
2013-05-24 15:42:00,85.6,73.4,29.85,ENE,67,2.0,8.0,67,0.00,,,-99.99,312,WeatherLink 5.4,2013-05-24 19:42:00,
2013-05-24 15:47:00,84.5,72.3,29.85,East,90,6.0,17.0,67,0.00,,,-99.99,198,WeatherLink 5.4,2013-05-24 19:47:00,
2013-05-24 15:53:00,84.5,72.3,29.85,East,90,6.0,17.0,67,0.00,,,-99.99,198,WeatherLink 5.4,2013-05-24 19:53:00,
2013-05-24 15:58:00,83.2,72.4,29.85,East,90,2.0,12.0,70,0.00,,,-99.99,220,WeatherLink 5.4,2013-05-24 19:58:00,
2013-05-24 16:04:00,83.2,72.4,29.85,East,90,2.0,12.0,70,0.00,,,-99.99,220,WeatherLink 5.4,2013-05-24 20:04:00,
2013-05-24 16:09:00,82.6,72.2,29.85,ENE,67,1.0,8.0,71,0.00,,,-99.99,163,WeatherLink 5.4,2013-05-24 20:09:00,
2013-05-24 16:15:00,82.6,72.2,29.85,ENE,67,1.0,8.0,71,0.00,,,-99.99,163,WeatherLink 5.4,2013-05-24 20:15:00,
2013-05-24 16:21:00,82.6,73.9,29.84,ENE,67,0.0,10.0,75,0.00,,,-99.99,108,WeatherLink 5.4,2013-05-24 20:21:00,
2013-05-24 16:26:00,82.6,73.9,29.84,ENE,67,0.0,10.0,75,0.00,,,-99.99,108,WeatherLink 5.4,2013-05-24 20:26:00,
2013-05-24 16:32:00,82.4,74.5,29.84,East,90,1.0,11.0,77,0.00,,,-99.99,75,WeatherLink 5.4,2013-05-24 20:32:00,
2013-05-24 16:37:00,82.1,74.2,29.84,North,-999,0.0,0.0,77,0.00,,,-99.99,74,WeatherLink 5.4,2013-05-24 20:37:00,
2013-05-24 16:43:00,82.1,74.2,29.84,North,-999,0.0,0.0,77,0.00,,,-99.99,74,WeatherLink 5.4,2013-05-24 20:43:00,
2013-05-24 16:49:00,82.0,71.7,29.85,East,90,2.0,9.0,71,0.00,,,-99.99,53,WeatherLink 5.4,2013-05-24 20:49:00,
2013-05-24 16:54:00,82.0,71.7,29.85,East,90,2.0,9.0,71,0.00,,,-99.99,53,WeatherLink 5.4,2013-05-24 20:54:00,
2013-05-24 17:00:00,82.2,71.0,29.86,East,90,1.0,8.0,69,0.00,,,-99.99,43,WeatherLink 5.4,2013-05-24 21:00:00,
2013-05-24 17:06:00,82.2,71.0,29.86,East,90,1.0,8.0,69,0.00,,,-99.99,43,WeatherLink 5.4,2013-05-24 21:06:00,
2013-05-24 17:12:00,82.6,71.4,29.86,North,-999,0.0,0.0,69,0.00,,,-99.99,53,WeatherLink 5.4,2013-05-24 21:12:00,
2013-05-24 17:18:00,82.8,71.6,29.86,ESE,112,0.0,6.0,69,0.00,,,-99.99,57,WeatherLink 5.4,2013-05-24 21:18:00,
2013-05-24 17:23:00,82.8,71.6,29.86,ESE,112,0.0,6.0,69,0.00,,,-99.99,57,WeatherLink 5.4,2013-05-24 21:23:00,
2013-05-24 17:29:00,82.7,71.9,29.87,ESE,112,0.0,7.0,70,0.00,,,-99.99,52,WeatherLink 5.4,2013-05-24 21:29:00,
2013-05-24 17:34:00,82.7,71.9,29.87,ESE,112,0.0,7.0,70,0.00,,,-99.99,52,WeatherLink 5.4,2013-05-24 21:34:00,
2013-05-24 17:40:00,82.6,71.8,29.87,SE,135,0.0,1.0,70,0.00,,,-99.99,52,WeatherLink 5.4,2013-05-24 21:40:00,
2013-05-24 17:46:00,82.6,71.8,29.87,SE,135,0.0,1.0,70,0.00,,,-99.99,52,WeatherLink 5.4,2013-05-24 21:46:00,
2013-05-24 17:51:00,82.6,71.8,29.87,North,-999,0.0,0.0,70,0.00,,,-99.99,53,WeatherLink 5.4,2013-05-24 21:51:00,
2013-05-24 17:56:00,82.5,73.4,29.87,North,-999,0.0,0.0,74,0.00,,,-99.99,38,WeatherLink 5.4,2013-05-24 21:56:00,
2013-05-24 18:01:00,82.5,73.4,29.87,North,-999,0.0,0.0,74,0.00,,,-99.99,38,WeatherLink 5.4,2013-05-24 22:01:00,
2013-05-24 18:07:00,82.4,74.1,29.87,ENE,67,0.0,1.0,76,0.00,,,-99.99,28,WeatherLink 5.4,2013-05-24 22:07:00,
2013-05-24 18:13:00,82.4,74.1,29.87,ENE,67,0.0,1.0,76,0.00,,,-99.99,28,WeatherLink 5.4,2013-05-24 22:13:00,
2013-05-24 18:18:00,81.8,73.5,29.87,North,-999,0.0,0.0,76,0.00,,,-99.99,27,WeatherLink 5.4,2013-05-24 22:18:00,
2013-05-24 18:24:00,81.8,73.5,29.87,North,-999,0.0,0.0,76,0.00,,,-99.99,27,WeatherLink 5.4,2013-05-24 22:24:00,
2013-05-24 18:30:00,81.6,72.9,29.87,East,90,2.0,11.0,75,0.00,,,-99.99,28,WeatherLink 5.4,2013-05-24 22:30:00,
2013-05-24 18:36:00,81.6,72.9,29.87,East,90,2.0,11.0,75,0.00,,,-99.99,28,WeatherLink 5.4,2013-05-24 22:36:00,
2013-05-24 18:42:00,81.6,72.5,29.87,East,90,2.0,8.0,74,0.00,,,-99.99,20,WeatherLink 5.4,2013-05-24 22:42:00,
2013-05-24 18:48:00,81.4,72.3,29.87,East,90,2.0,8.0,74,0.00,,,-99.99,9,WeatherLink 5.4,2013-05-24 22:48:00,
2013-05-24 18:54:00,81.4,72.3,29.87,East,90,2.0,8.0,74,0.00,,,-99.99,9,WeatherLink 5.4,2013-05-24 22:54:00,
2013-05-24 19:00:00,81.4,72.7,29.88,East,90,3.0,11.0,75,0.00,,,-99.99,2,WeatherLink 5.4,2013-05-24 23:00:00,
2013-05-24 19:05:00,81.4,72.7,29.88,East,90,3.0,11.0,75,0.00,,,-99.99,2,WeatherLink 5.4,2013-05-24 23:05:00,
2013-05-24 19:10:00,81.2,72.5,29.88,ESE,112,1.0,11.0,75,0.00,,,-99.99,0,WeatherLink 5.4,2013-05-24 23:10:00,
2013-05-24 19:16:00,81.2,72.5,29.88,ESE,112,1.0,11.0,75,0.00,,,-99.99,0,WeatherLink 5.4,2013-05-24 23:16:00,
2013-05-24 19:21:00,81.2,72.5,29.88,ESE,112,1.0,10.0,75,0.00,,,-99.99,0,WeatherLink 5.4,2013-05-24 23:21:00,
2013-05-24 19:27:00,81.2,72.5,29.88,ESE,112,1.0,10.0,75,0.00,,,-99.99,0,WeatherLink 5.4,2013-05-24 23:27:00,
2013-05-24 19:32:00,81.2,73.3,29.89,East,90,0.0,6.0,77,0.00,,,-99.99,0,WeatherLink 5.4,2013-05-24 23:32:00,
2013-05-24 19:38:00,81.1,73.2,29.89,ENE,67,0.0,1.0,77,0.00,,,-99.99,0,WeatherLink 5.4,2013-05-24 23:38:00,
2013-05-24 19:44:00,81.1,73.2,29.89,ENE,67,0.0,1.0,77,0.00,,,-99.99,0,WeatherLink 5.4,2013-05-24 23:44:00,
2013-05-24 19:50:00,80.9,73.4,29.90,North,-999,0.0,0.0,78,0.00,,,-99.99,0,WeatherLink 5.4,2013-05-24 23:50:00,
2013-05-24 19:56:00,80.9,73.4,29.90,North,-999,0.0,0.0,78,0.00,,,-99.99,0,WeatherLink 5.4,2013-05-24 23:56:00,
2013-05-24 20:02:00,80.6,73.5,29.91,North,-999,0.0,0.0,79,0.00,,,-99.99,0,WeatherLink 5.4,2013-05-25 00:02:00,
2013-05-24 20:08:00,80.4,73.3,29.91,ENE,67,0.0,1.0,79,0.00,,,-99.99,0,WeatherLink 5.4,2013-05-25 00:08:00,
2013-05-24 20:14:00,80.4,73.3,29.91,ENE,67,0.0,1.0,79,0.00,,,-99.99,0,WeatherLink 5.4,2013-05-25 00:14:00,
2013-05-24 20:20:00,80.3,73.2,29.91,East,90,0.0,6.0,79,0.00,,,-99.99,0,WeatherLink 5.4,2013-05-25 00:20:00,
2013-05-24 20:25:00,80.3,73.2,29.91,East,90,0.0,6.0,79,0.00,,,-99.99,0,WeatherLink 5.4,2013-05-25 00:25:00,
2013-05-24 20:30:00,80.3,73.2,29.92,ENE,67,0.0,5.0,79,0.00,,,-99.99,0,WeatherLink 5.4,2013-05-25 00:30:00,
2013-05-24 20:36:00,80.3,73.2,29.92,ENE,67,0.0,5.0,79,0.00,,,-99.99,0,WeatherLink 5.4,2013-05-25 00:36:00,
2013-05-24 20:41:00,80.1,72.6,29.92,East,90,1.0,6.0,78,0.00,,,-99.99,0,WeatherLink 5.4,2013-05-25 00:41:00,
2013-05-24 20:47:00,80.1,72.6,29.92,East,90,0.0,1.0,78,0.00,,,-99.99,0,WeatherLink 5.4,2013-05-25 00:47:00,
2013-05-24 20:53:00,80.1,72.6,29.92,East,90,0.0,1.0,78,0.00,,,-99.99,0,WeatherLink 5.4,2013-05-25 00:53:00,
2013-05-24 20:59:00,79.9,72.4,29.92,East,90,0.0,1.0,78,0.00,,,-99.99,0,WeatherLink 5.4,2013-05-25 00:59:00,
2013-05-24 21:05:00,79.9,72.4,29.92,East,90,0.0,1.0,78,0.00,,,-99.99,0,WeatherLink 5.4,2013-05-25 01:05:00,
2013-05-24 21:11:00,79.8,72.3,29.92,East,90,1.0,6.0,78,0.00,,,-99.99,0,WeatherLink 5.4,2013-05-25 01:11:00,
2013-05-24 21:17:00,79.8,72.3,29.93,North,-999,0.0,0.0,78,0.00,,,-99.99,0,WeatherLink 5.4,2013-05-25 01:17:00,
2013-05-24 21:23:00,79.8,72.3,29.93,North,-999,0.0,0.0,78,0.00,,,-99.99,0,WeatherLink 5.4,2013-05-25 01:23:00,
2013-05-24 21:28:00,79.8,72.7,29.93,East,90,0.0,1.0,79,0.00,,,-99.99,0,WeatherLink 5.4,2013-05-25 01:28:00,
2013-05-24 21:33:00,79.8,72.7,29.93,East,90,0.0,1.0,79,0.00,,,-99.99,0,WeatherLink 5.4,2013-05-25 01:33:00,
2013-05-24 21:38:00,79.8,73.1,29.93,ENE,67,0.0,2.0,80,0.00,,,-99.99,0,WeatherLink 5.4,2013-05-25 01:38:00,
2013-05-24 21:44:00,79.8,73.1,29.93,ENE,67,0.0,2.0,80,0.00,,,-99.99,0,WeatherLink 5.4,2013-05-25 01:44:00,
2013-05-24 21:49:00,79.6,72.9,29.94,North,-999,0.0,0.0,80,0.00,,,-99.99,0,WeatherLink 5.4,2013-05-25 01:49:00,
2013-05-24 21:54:00,79.6,72.9,29.94,North,-999,0.0,0.0,80,0.00,,,-99.99,0,WeatherLink 5.4,2013-05-25 01:54:00,
2013-05-24 22:00:00,79.6,72.9,29.94,East,90,0.0,3.0,80,0.00,,,-99.99,0,WeatherLink 5.4,2013-05-25 02:00:00,
2013-05-24 22:06:00,79.6,72.9,29.94,East,90,0.0,3.0,80,0.00,,,-99.99,0,WeatherLink 5.4,2013-05-25 02:06:00,
2013-05-24 22:11:00,79.4,73.1,29.94,East,90,0.0,3.0,81,0.00,,,-99.99,0,WeatherLink 5.4,2013-05-25 02:11:00,
2013-05-24 22:16:00,79.4,73.1,29.94,East,90,1.0,6.0,81,0.00,,,-99.99,0,WeatherLink 5.4,2013-05-25 02:16:00,
2013-05-24 22:21:00,79.4,73.1,29.94,East,90,1.0,6.0,81,0.00,,,-99.99,0,WeatherLink 5.4,2013-05-25 02:21:00,
2013-05-24 22:27:00,79.3,73.3,29.93,East,90,0.0,3.0,82,0.00,,,-99.99,0,WeatherLink 5.4,2013-05-25 02:27:00,
2013-05-24 22:33:00,79.3,73.3,29.93,East,90,0.0,3.0,82,0.00,,,-99.99,0,WeatherLink 5.4,2013-05-25 02:33:00,
2013-05-24 22:39:00,79.2,73.2,29.93,North,-999,0.0,0.0,82,0.00,,,-99.99,0,WeatherLink 5.4,2013-05-25 02:39:00,
2013-05-24 22:45:00,79.2,73.2,29.93,North,-999,0.0,0.0,82,0.00,,,-99.99,0,WeatherLink 5.4,2013-05-25 02:45:00,
2013-05-24 22:51:00,79.2,73.2,29.93,East,90,1.0,7.0,82,0.00,,,-99.99,0,WeatherLink 5.4,2013-05-25 02:51:00,
2013-05-24 22:57:00,79.2,73.2,29.93,East,90,1.0,6.0,82,0.00,,,-99.99,0,WeatherLink 5.4,2013-05-25 02:57:00,
2013-05-24 23:03:00,79.2,73.2,29.93,East,90,1.0,6.0,82,0.00,,,-99.99,0,WeatherLink 5.4,2013-05-25 03:03:00,
2013-05-24 23:09:00,79.0,73.0,29.93,ENE,67,0.0,6.0,82,0.00,,,-99.99,0,WeatherLink 5.4,2013-05-25 03:09:00,
2013-05-24 23:15:00,79.0,73.0,29.93,ENE,67,0.0,6.0,82,0.00,,,-99.99,0,WeatherLink 5.4,2013-05-25 03:15:00,
2013-05-24 23:21:00,78.9,72.9,29.92,East,90,3.0,8.0,82,0.00,,,-99.99,0,WeatherLink 5.4,2013-05-25 03:21:00,
2013-05-24 23:26:00,78.8,73.2,29.92,East,90,1.0,8.0,83,0.00,,,-99.99,0,WeatherLink 5.4,2013-05-25 03:26:00,
2013-05-24 23:32:00,78.8,73.2,29.92,East,90,1.0,8.0,83,0.00,,,-99.99,0,WeatherLink 5.4,2013-05-25 03:32:00,
2013-05-24 23:38:00,78.6,73.0,29.92,East,90,1.0,5.0,83,0.00,,,-99.99,0,WeatherLink 5.4,2013-05-25 03:38:00,
2013-05-24 23:43:00,78.6,73.0,29.92,East,90,1.0,5.0,83,0.00,,,-99.99,0,WeatherLink 5.4,2013-05-25 03:43:00,
2013-05-24 23:48:00,78.6,73.0,29.92,North,-999,0.0,0.0,83,0.00,,,-99.99,0,WeatherLink 5.4,2013-05-25 03:48:00,
2013-05-24 23:54:00,78.6,73.0,29.92,North,-999,0.0,0.0,83,0.00,,,-99.99,0,WeatherLink 5.4,2013-05-25 03:54:00,